This is the latest recevied weather packets stored in our database for station/object K4AXV-13. If no packets are shown the sender has not sent any weather packets the latest 10 day(s).
| Time | Temp. | Humidity | Pressure | Rain* | Wind** | Luminosity | Snow |
|---|---|---|---|---|---|---|---|
| 1778119034 | 22.22° C | - | - | 0 mm | 0 m/s | - | - |
| 1778118928 | 22.22° C | - | - | 0 mm | 0.45 m/s, 314° | - | - |
| 1778118813 | 22.22° C | - | - | 0 mm | 0.45 m/s, 314° | - | - |
| 1778118735 | 22.22° C | - | - | 0 mm | 0.45 m/s, 314° | - | - |
| 1778118432 | 22.22° C | - | - | 0 mm | 0.89 m/s, 345° | - | - |
| 1778117830 | 22.78° C | - | - | 0 mm | 0 m/s | - | - |
| 1778117228 | 22.22° C | - | - | 0 mm | 0 m/s | - | - |
| 1778116627 | 22.22° C | - | - | 0 mm | 0.45 m/s, 339° | - | - |
| 1778116327 | 22.78° C | - | - | 0 mm | 0 m/s | - | - |
| 1778116026 | 22.78° C | - | - | 0 mm | 0.45 m/s, 322° | - | - |
| 1778115727 | 22.78° C | - | - | 0 mm | 1.34 m/s, 354° | - | - |
| 1778115423 | 22.78° C | - | - | 0 mm | 0 m/s | - | - |
| 1778115124 | 22.78° C | - | - | 0 mm | 0.45 m/s, 274° | - | - |
| 1778114821 | 22.78° C | - | - | 0 mm | 0 m/s | - | - |
| 1778114219 | 22.78° C | - | - | 0 mm | 0.45 m/s, 256° | - | - |
| 1778113920 | 23.33° C | - | - | 0 mm | 0.45 m/s, 352° | - | - |
| 1778113617 | 23.33° C | - | - | 0 mm | 0 m/s | - | - |
| 1778113318 | 23.33° C | - | - | 0 mm | 0.45 m/s, 307° | - | - |
| 1778113014 | 23.33° C | - | - | 0 mm | 2.24 m/s, 277° | - | - |
| 1778112414 | 23.89° C | - | - | 0 mm | 0.45 m/s, 349° | - | - |
| 1778112115 | 23.89° C | - | - | 0 mm | 1.79 m/s, 333° | - | - |
| 1778111813 | 23.89° C | - | - | 0 mm | 0.45 m/s, 357° | - | - |
| 1778111514 | 24.44° C | - | - | 0 mm | 0.89 m/s, 325° | - | - |
| 1778111210 | 24.44° C | - | - | 0 mm | 0.45 m/s, 301° | - | - |
| 1778110911 | 24.44° C | - | - | 0 mm | 0.45 m/s, 329° | - | - |
* Rain latest hour (hover to see other rain measurements)
** Current wind speed in m/s (hover to see current wind gust speed)